Location: Lane
(33.5226°N, 79.8788°W)
Time: 23:58:29
(UTC+00:00)

Vanguard 2 Rocket - Pass Details

Date: 11 October 2022
Orbit: 555 x 3321 km, 32.9° (Epoch: 03 December)

Event Time Altitude Azimuth Distance (km) Brightness Sun altitude
Rises 23:58:48 0° 226° (SW) 7,000 12.1 -14.7°
Reaches altitude 10° 00:03:26 10° 223° (SW) 6,145 11.7 -15.7°
Maximum altitude 00:22:53 56° 151° (SSE) 3,581 9.6 -19.7°
Enters shadow 00:33:19 28° 90° (E) 4,221 9.6 -21.9°
